Terminal Aerodrome Forecast
Issued by NWS Cleveland, OH

Home | Current Version | Previous Version | Graphics & Text | Print | Product List | Glossary On
Versions: 1 2 3 4 5 6 7 8 9 10 11 12 13 14 15 16 17 18 19 20 21 22 23 24 25
000
FTUS41 KCLE 241400 AAA
TAFCLE
TAF AMD
KCLE 241452Z 2415/2518 19010KT P6SM BKN180
     FM241700 21017G25KT P6SM BKN150
     FM250000 24015G22KT 4SM -SN SCT020 BKN035
     FM250600 23010KT 2SM -SN BR BKN010 OVC020
     FM251100 30008KT 5SM -SHSN BKN015 OVC025=

USA.gov is the U.S. government's official web portal to all federal, state and local government web resources and services.